VGHS

Shahjalal International Airport

Airport
ICAO code
VGHS
IATA Code
DAC
Summary
ICAO Region
APAC
ICAO Territory
Location

Kurmitola, Bangladesh

Serving
Dhaka
Elevation
27 ft
Coordinates
23° 50' 36" N , 90° 24' 11" E
KCC
Metar
VGHS 041100Z 00000KT 4000 HZ SCT120 28/15 Q1011 NOSIG

Hazrat Shahjalal International Airport, formerly known as Dacca International Airport and Zia International Airport (VGZR), is the largest airport in Bangladesh.

Climatology

Tropical Savanna climate (Köppen climate classification Aw)

Airport map

Aerial View

SKYbrary Partners:

Safety knowledge contributed by: